Regional Weather Roundup
Issued by NWS Northern Indiana

Home | Current Version | Previous Version | Text Only | Print | Product List | Glossary Off
Versions: 1 2 3 4 5 6 7 8 9 10 11 12 13 14 15 16 17 18 19 20 21 22 23 24 25 26 27 28 29 30 31 32 33 34 35 36 37 38 39 40 41 42 43 44 45 46 47 48 49 50

000
ASUS43 KIWX 292310
RWRIWX

KIWX WEATHER ROUNDUP
NATIONAL WEATHER SERVICE NORTHERN INDIANA
700 PM EDT TUE JUL 29 2014

NOTE: "FAIR" INDICATES FEW OR NO CLOUDS BELOW 12,000 FEET WITH NO
SIGNIFICANT WEATHER AND/OR OBSTRUCTIONS TO VISIBILITY.

* THESE STATIONS ARE NOT UNDER NWS QUALITY CONTROL. THEY ALSO MAY NOT
  REPORT WEATHER SUCH AS PRECIPITATION OR FOG.

INZ001>027-300000-
NORTHERN INDIANA

CITY           SKY/WX    TMP DP  RH WIND       PRES   REMARKS
GARY*          MOSUNNY   75  55  50 CALM      30.00F
VALPARAISO     MOSUNNY   74  55  51 N5        30.00F
MICHIGAN CITY* SUNNY     72  52  49 N3        30.01S
LAPORTE*       SUNNY     72  53  50 NW6       30.01S
KNOX*          SUNNY     74  54  49 N5        29.99F
SOUTH BEND     SUNNY     74  53  48 N10       30.00F
ELKHART*       SUNNY     72  50  46 NW7       30.01S
GOSHEN         SUNNY     73  54  51 NW12      30.00S
MONTICELLO*    MOSUNNY   69  62  78 SW6       30.01F
LOGANSPORT*    MOSUNNY   70  57  64 W8        30.02F
ROCHESTER*     SUNNY     77  52  41 N8        30.01F
WARSAW*        MOSUNNY   72  54  53 NW10      30.01S
ANGOLA*        MOSUNNY   68  61  77 CALM      29.99S
FORT WAYNE     PTSUNNY   66  60  81 SE6       30.02S
HUNTINGTON*    CLOUDY    70  60  72 W8        30.00F
PERU/GRISSOM   PTSUNNY   69  62  79 W9        30.02F
MARION*        CLOUDY    65  59  83 SW5       30.03F

$$
INZ028>050-300000-
CENTRAL INDIANA

CITY           SKY/WX    TMP DP  RH WIND       PRES   REMARKS
LAFAYETTE      RAIN      63  61  93 W5        30.04R
KOKOMO*        MOSUNNY   68  63  83 SW10      30.03F
MUNCIE*        LGT RAIN  66  59  78 W6        30.03F
INDIANAPOLIS   PTSUNNY   70  60  70 S7        30.03F

$$
MIZ043>046-050>051-056>058-064>065-071>073-077>080-300000-
SOUTHWEST LOWER MICHIGAN

CITY           SKY/WX    TMP DP  RH WIND       PRES   REMARKS
BATTLE CREEK   SUNNY     71  54  54 W13       29.99S
BENTON HARBOR  SUNNY     69  55  60 W5        29.99F
COLDWATER*     SUNNY     71  62  72 W6        29.98S
HILLSDALE*     MOSUNNY   70  59  66 W5        29.98F
HOLLAND        SUNNY     69  58  67 W7        30.00S
GRAND RAPIDS   MOSUNNY   72  53  51 NW14      29.97F
KALAMAZOO      SUNNY     71  54  54 NW12      29.99S
STURGIS*       MOSUNNY   72  55  56 W9        29.99S
THREE RIVERS*  FAIR      72  57  58 W10       29.99F

$$
OHZ001>008-015>018-024>025-300000-
NORTHWEST OHIO

CITY           SKY/WX    TMP DP  RH WIND       PRES   REMARKS
WAUSEON*       FAIR      72  57  60 W9        29.98F
DEFIANCE       PTSUNNY   66  59  78 S3        29.99F
FINDLAY        MOSUNNY   70  54  56 SW8       30.00S
TOLEDO EXPRESS PTSUNNY   71  55  56 SW8       29.98S
TOLEDO METCALF PTSUNNY   72  53  51 W12       29.99R
LIMA           MOSUNNY   71  55  56 W8        30.01F

$$
&&


USA.gov is the U.S. government's official web portal to all federal, state and local government web resources and services.